PAA1895 MPTO-SAEZ

Flight info

Callsign PAA1895
Flight time 6h 16m
Altitude 35000
Route DABEL1A DABEL DCT TBG UL780 UGUPI/N0490F370 UL780 ISREN UM542 ILMAR/N0485F390 UL302 ELASA UL650 GEKAL UT691 LAR UW16 CBA UW24 SNT SNT7X
Aircraft MD11/H-SDE1E2E3FGHIJ2J3J4J5M1RWXY/LB1D1

Departure

Time 2026-05-04 21:00
Airport Tocumen International Airport (MPTO)

Arrival

Time 2026-05-05 03:16
Airport Ezeiza International Airport - Ministro Pistarini (SAEZ)
Time Latitude Longitude Altitude Speed Heading
2026-05-04 19:58 9.06569 -79.38629 37 ft 0 kts 298°
2026-05-04 20:46 9.06565 -79.38621 36 ft 4 kts 296°
2026-05-04 20:46 9.06554 -79.38596 37 ft 4 kts 288°
2026-05-04 20:46 9.06546 -79.38570 37 ft 4 kts 277°
2026-05-04 20:47 9.06545 -79.38544 37 ft 4 kts 259°
2026-05-04 20:47 9.06553 -79.38521 37 ft 4 kts 229°
2026-05-04 20:47 9.06563 -79.38510 37 ft 0 kts 208°
2026-05-04 20:52 9.06552 -79.38516 37 ft 4 kts 208°
2026-05-04 20:53 9.06513 -79.38538 37 ft 9 kts 208°
2026-05-04 20:53 9.06443 -79.38575 37 ft 14 kts 207°
2026-05-04 20:53 9.06355 -79.38619 37 ft 12 kts 201°
2026-05-04 20:53 9.06285 -79.38624 37 ft 9 kts 180°
2026-05-04 20:54 9.06220 -79.38626 37 ft 12 kts 186°
2026-05-04 20:54 9.06137 -79.38655 36 ft 12 kts 208°
2026-05-04 20:54 9.06052 -79.38704 38 ft 16 kts 209°
2026-05-04 20:54 9.05949 -79.38762 37 ft 18 kts 209°
2026-05-04 20:55 9.05832 -79.38829 37 ft 21 kts 210°
2026-05-04 20:55 9.05704 -79.38904 37 ft 21 kts 210°
2026-05-04 20:55 9.05572 -79.38981 37 ft 24 kts 210°
2026-05-04 20:55 9.05435 -79.39061 37 ft 22 kts 209°
2026-05-04 20:56 9.05303 -79.39137 37 ft 22 kts 210°
2026-05-04 20:56 9.05178 -79.39208 37 ft 19 kts 210°
2026-05-04 20:56 9.05068 -79.39271 38 ft 17 kts 209°
2026-05-04 20:56 9.04974 -79.39325 35 ft 15 kts 209°
2026-05-04 20:57 9.04892 -79.39371 38 ft 12 kts 208°
2026-05-04 20:57 9.04837 -79.39374 38 ft 2 kts 150°
2026-05-04 20:57 9.04831 -79.39365 36 ft 4 kts 129°
2026-05-04 20:57 9.04812 -79.39333 38 ft 8 kts 120°
2026-05-04 20:58 9.04787 -79.39271 39 ft 8 kts 97°
2026-05-04 20:58 9.04792 -79.39252 39 ft 1 kts 60°
2026-05-04 20:58 9.04803 -79.39241 39 ft 4 kts 44°
2026-05-04 20:58 9.04824 -79.39227 39 ft 3 kts 33°
2026-05-04 20:59 9.04835 -79.39220 39 ft 3 kts 31°
2026-05-04 20:59 9.04937 -79.39162 37 ft 48 kts 29°
2026-05-04 20:59 9.05483 -79.38851 37 ft 124 kts 29°
2026-05-04 20:59 9.06378 -79.38345 40 ft 168 kts 29°
2026-05-04 21:00 9.07431 -79.37743 319 ft 177 kts 30°
2026-05-04 21:00 9.08512 -79.37107 585 ft 182 kts 30°
2026-05-04 21:00 9.09599 -79.36447 830 ft 183 kts 31°
2026-05-04 21:00 9.10685 -79.35767 1050 ft 186 kts 28°
2026-05-04 21:01 9.11828 -79.35132 1318 ft 187 kts 27°
2026-05-04 21:01 9.12977 -79.34503 1786 ft 191 kts 27°
2026-05-04 21:01 9.14106 -79.33884 2799 ft 187 kts 27°
2026-05-04 21:01 9.15250 -79.33241 3766 ft 187 kts 27°
2026-05-04 21:02 9.16480 -79.32558 4182 ft 219 kts 26°
2026-05-04 21:02 9.17871 -79.31783 4622 ft 248 kts 28°
2026-05-04 21:02 9.19459 -79.30894 5241 ft 265 kts 27°
2026-05-04 21:02 9.21156 -79.30160 6249 ft 269 kts 15°
2026-05-04 21:03 9.23022 -79.30023 7196 ft 272 kts 353°
2026-05-04 21:03 9.24822 -79.30694 8012 ft 284 kts 327°
2026-05-04 21:03 9.26202 -79.32128 8811 ft 292 kts 301°
2026-05-04 21:03 9.26836 -79.34079 9674 ft 297 kts 279°
2026-05-04 21:04 9.26974 -79.36197 10410 ft 305 kts 272°
2026-05-04 21:04 9.26981 -79.38359 11187 ft 309 kts 270°
2026-05-04 21:04 9.26967 -79.40553 11963 ft 314 kts 270°
2026-05-04 21:04 9.26962 -79.42787 12666 ft 320 kts 270°
2026-05-04 21:05 9.26971 -79.45043 13413 ft 322 kts 271°
2026-05-04 21:05 9.27001 -79.47323 14156 ft 325 kts 271°
2026-05-04 21:05 9.27037 -79.49625 14914 ft 328 kts 271°
2026-05-04 21:05 9.26963 -79.51937 15689 ft 331 kts 262°
2026-05-04 21:06 9.26320 -79.54168 16432 ft 331 kts 241°
2026-05-04 21:06 9.24901 -79.55978 17166 ft 331 kts 218°
2026-05-04 21:06 9.22967 -79.57252 17833 ft 334 kts 207°
2026-05-04 21:06 9.20875 -79.58298 18526 ft 337 kts 204°
2026-05-04 21:07 9.18738 -79.59303 19168 ft 340 kts 204°
2026-05-04 21:07 9.16584 -79.60325 19823 ft 344 kts 205°
2026-05-04 21:07 9.14415 -79.61377 20452 ft 348 kts 206°
2026-05-04 21:07 9.12233 -79.62454 21073 ft 351 kts 206°
2026-05-04 21:08 9.10041 -79.63551 21692 ft 353 kts 206°
2026-05-04 21:08 9.07836 -79.64661 22326 ft 355 kts 207°
2026-05-04 21:08 9.05614 -79.65783 22893 ft 359 kts 207°
2026-05-04 21:08 9.03361 -79.66901 23384 ft 364 kts 203°
2026-05-04 21:09 9.00888 -79.67521 23693 ft 375 kts 185°
2026-05-04 21:09 8.98249 -79.67302 23826 ft 389 kts 166°
2026-05-04 21:09 8.95716 -79.66227 23961 ft 404 kts 149°
2026-05-04 21:09 8.93380 -79.64576 24107 ft 417 kts 144°
2026-05-04 21:10 8.91004 -79.62820 24218 ft 429 kts 146°
2026-05-04 21:10 8.88486 -79.61155 24358 ft 440 kts 149°
2026-05-04 21:10 8.85787 -79.59589 24483 ft 452 kts 152°
2026-05-04 21:10 8.82957 -79.58108 24615 ft 464 kts 154°
2026-05-04 21:11 8.79984 -79.56795 24996 ft 468 kts 162°
2026-05-04 21:11 8.76811 -79.56070 25529 ft 469 kts 174°
2026-05-04 21:11 8.73540 -79.55927 25954 ft 473 kts 182°
2026-05-04 21:11 8.70249 -79.56067 26444 ft 476 kts 184°
2026-05-04 21:12 8.66930 -79.56290 26927 ft 479 kts 184°
2026-05-04 21:12 8.63586 -79.56502 27345 ft 483 kts 184°
2026-05-04 21:12 8.60230 -79.56677 27780 ft 486 kts 183°
2026-05-04 21:12 8.56839 -79.56818 28249 ft 488 kts 182°
2026-05-04 21:13 8.53421 -79.56935 28596 ft 493 kts 182°
2026-05-04 21:13 8.49995 -79.57038 29077 ft 495 kts 181°
2026-05-04 21:13 8.46548 -79.57139 29436 ft 498 kts 181°
2026-05-04 21:13 8.43055 -79.57238 29787 ft 501 kts 181°
2026-05-04 21:14 8.39565 -79.57337 30154 ft 504 kts 181°
2026-05-04 21:14 8.36051 -79.57436 30469 ft 505 kts 181°
2026-05-04 21:14 8.32541 -79.57539 30823 ft 506 kts 181°
2026-05-04 21:14 8.29024 -79.57644 31250 ft 504 kts 181°
2026-05-04 21:15 8.25519 -79.57752 31698 ft 502 kts 181°
2026-05-04 21:15 8.22032 -79.57860 32191 ft 500 kts 181°
2026-05-04 21:15 8.18566 -79.57967 32640 ft 498 kts 181°
2026-05-04 21:15 8.15111 -79.58069 33044 ft 496 kts 181°
2026-05-04 21:16 8.11621 -79.58173 33479 ft 494 kts 181°
2026-05-04 21:16 8.08249 -79.58273 33844 ft 490 kts 181°
2026-05-04 21:16 8.04801 -79.58373 34236 ft 487 kts 181°
2026-05-04 21:16 8.01472 -79.58471 34590 ft 484 kts 181°
2026-05-04 21:17 7.98103 -79.58573 34793 ft 486 kts 181°
2026-05-04 21:17 7.94716 -79.58675 34850 ft 488 kts 181°
2026-05-04 21:17 7.87925 -79.58880 34852 ft 488 kts 181°
2026-05-04 21:18 7.81135 -79.59084 34851 ft 488 kts 181°
2026-05-04 21:18 7.74293 -79.59289 34850 ft 488 kts 181°
2026-05-04 21:19 7.67542 -79.59490 34851 ft 488 kts 181°
2026-05-04 21:19 7.60749 -79.59692 34850 ft 489 kts 181°
2026-05-04 21:20 7.53906 -79.59896 34850 ft 489 kts 181°
2026-05-04 21:20 7.47153 -79.60096 34851 ft 489 kts 181°
2026-05-04 21:21 7.40354 -79.60299 34850 ft 489 kts 181°
2026-05-04 21:21 7.33508 -79.60501 34850 ft 489 kts 181°
2026-05-04 21:22 7.26756 -79.60700 34850 ft 488 kts 181°
2026-05-04 21:22 7.19913 -79.60895 34851 ft 489 kts 181°
2026-05-04 21:23 7.13108 -79.61087 34850 ft 489 kts 180°
2026-05-04 21:23 7.06309 -79.61281 34850 ft 489 kts 180°
2026-05-04 21:24 6.99498 -79.61474 34851 ft 489 kts 180°
2026-05-04 21:24 6.92739 -79.61664 34851 ft 489 kts 180°
2026-05-04 21:25 6.85933 -79.61858 34851 ft 489 kts 180°
2026-05-04 21:25 6.79078 -79.62052 34850 ft 489 kts 180°
2026-05-04 21:26 6.72319 -79.62243 34850 ft 489 kts 180°
2026-05-04 21:26 6.65473 -79.62437 34851 ft 489 kts 180°
2026-05-04 21:27 6.58658 -79.62631 34850 ft 489 kts 180°
2026-05-04 21:27 6.51851 -79.62823 34851 ft 490 kts 180°
2026-05-04 21:28 6.45043 -79.63015 34850 ft 489 kts 180°
2026-05-04 21:28 6.39376 -79.63176 34850 ft 490 kts 180°
2026-05-04 21:29 6.32564 -79.63368 34851 ft 490 kts 180°
2026-05-04 21:29 6.25752 -79.63560 34850 ft 490 kts 180°
2026-05-04 21:30 6.18945 -79.63752 34842 ft 490 kts 180°
2026-05-04 21:30 6.12133 -79.63943 34842 ft 490 kts 180°
2026-05-04 21:31 6.01907 -79.64232 34841 ft 490 kts 180°
2026-05-04 21:32 5.95099 -79.64425 34842 ft 490 kts 180°
2026-05-04 21:32 5.88280 -79.64618 34841 ft 490 kts 180°
2026-05-04 21:33 5.81463 -79.64811 34842 ft 490 kts 180°
2026-05-04 21:33 5.74636 -79.65004 34842 ft 490 kts 180°
2026-05-04 21:34 5.67813 -79.65198 34840 ft 491 kts 180°
2026-05-04 21:34 5.60985 -79.65389 34841 ft 491 kts 180°
2026-05-04 21:35 5.54156 -79.65582 34841 ft 491 kts 180°
2026-05-04 21:35 5.47318 -79.65774 34844 ft 492 kts 180°
2026-05-04 21:36 5.40478 -79.65966 34841 ft 492 kts 180°
2026-05-04 21:36 5.33638 -79.66158 34841 ft 492 kts 180°
2026-05-04 21:37 5.26788 -79.66351 34842 ft 493 kts 180°
2026-05-04 21:37 5.19936 -79.66543 34843 ft 493 kts 180°
2026-05-04 21:38 5.13072 -79.66785 34841 ft 494 kts 181°
2026-05-04 21:38 5.06200 -79.67095 34842 ft 495 kts 181°
2026-05-04 21:39 4.99322 -79.67410 34843 ft 495 kts 181°
2026-05-04 21:39 4.92435 -79.67722 34841 ft 496 kts 181°
2026-05-04 21:40 4.85540 -79.68031 34840 ft 496 kts 181°
2026-05-04 21:40 4.78634 -79.68339 34841 ft 497 kts 181°
2026-05-04 21:41 4.71726 -79.68647 34841 ft 497 kts 181°
2026-05-04 21:41 4.64812 -79.68956 34840 ft 498 kts 181°
2026-05-04 21:42 4.57898 -79.69262 34849 ft 498 kts 181°
2026-05-04 21:42 4.50965 -79.69572 34850 ft 498 kts 181°
2026-05-04 21:43 4.44040 -79.69881 34858 ft 499 kts 181°
2026-05-04 21:43 4.37101 -79.70191 34860 ft 499 kts 180°
2026-05-04 21:44 4.30164 -79.70499 34860 ft 499 kts 181°
2026-05-04 21:44 4.23217 -79.70810 34860 ft 500 kts 181°
2026-05-04 21:45 4.16277 -79.71119 34860 ft 499 kts 181°
2026-05-04 21:45 4.09327 -79.71429 34860 ft 499 kts 181°
2026-05-04 21:46 4.02382 -79.71738 34860 ft 500 kts 181°
2026-05-04 21:46 3.95389 -79.72049 34860 ft 500 kts 180°
2026-05-04 21:47 3.88478 -79.72356 34860 ft 500 kts 180°
2026-05-04 21:47 3.81480 -79.72668 34866 ft 500 kts 180°
2026-05-04 21:48 3.74534 -79.72978 34863 ft 500 kts 180°
2026-05-04 21:48 3.67576 -79.73287 34851 ft 500 kts 180°
2026-05-04 21:49 3.60630 -79.73596 34851 ft 500 kts 180°
2026-05-04 21:49 3.53678 -79.73904 34850 ft 500 kts 180°
2026-05-04 21:50 3.46739 -79.74214 34851 ft 499 kts 180°
2026-05-04 21:50 3.39795 -79.74524 34851 ft 499 kts 180°
2026-05-04 21:51 3.32857 -79.74833 34851 ft 499 kts 180°
2026-05-04 21:51 3.25920 -79.75141 34850 ft 499 kts 180°
2026-05-04 21:52 3.18984 -79.75449 34850 ft 499 kts 180°
2026-05-04 21:52 3.12052 -79.75756 34851 ft 499 kts 180°
2026-05-04 21:53 3.05123 -79.76066 34850 ft 498 kts 180°
2026-05-04 21:53 2.98202 -79.76373 34850 ft 498 kts 180°
2026-05-04 21:54 2.91327 -79.76678 34850 ft 497 kts 180°
2026-05-04 21:54 2.84373 -79.76988 34850 ft 497 kts 180°
2026-05-04 21:55 2.77474 -79.77293 34851 ft 497 kts 180°
2026-05-04 21:55 2.70566 -79.77601 34851 ft 497 kts 180°
2026-05-04 21:56 2.63660 -79.77908 34851 ft 496 kts 180°
2026-05-04 21:56 2.56771 -79.78215 34850 ft 496 kts 180°
2026-05-04 21:57 2.49870 -79.78522 34858 ft 496 kts 180°
2026-05-04 21:57 2.42983 -79.78827 34859 ft 495 kts 180°
2026-05-04 21:58 2.36088 -79.79132 34861 ft 495 kts 180°
2026-05-04 21:58 2.29203 -79.79438 34860 ft 495 kts 180°
2026-05-04 21:59 2.22321 -79.79743 34860 ft 495 kts 180°
2026-05-04 21:59 2.15443 -79.80048 34862 ft 495 kts 180°
2026-05-04 22:00 2.08563 -79.80354 34860 ft 494 kts 180°
2026-05-04 22:00 2.01692 -79.80659 34860 ft 494 kts 180°
2026-05-04 22:01 1.94824 -79.80963 34860 ft 494 kts 180°
2026-05-04 22:01 1.87954 -79.81267 34860 ft 494 kts 180°
2026-05-04 22:02 1.81091 -79.81572 34860 ft 494 kts 180°
2026-05-04 22:02 1.74222 -79.81878 34852 ft 494 kts 180°
2026-05-04 22:03 1.67350 -79.82183 34850 ft 494 kts 180°
2026-05-04 22:03 1.60487 -79.82490 34850 ft 494 kts 180°
2026-05-04 22:04 1.53613 -79.82793 34857 ft 494 kts 180°
2026-05-04 22:04 1.46742 -79.83096 34860 ft 494 kts 180°
2026-05-04 22:05 1.39872 -79.83351 34860 ft 494 kts 178°
2026-05-04 22:05 1.33011 -79.83434 34860 ft 493 kts 178°
2026-05-04 22:06 1.26141 -79.83479 34860 ft 493 kts 178°
2026-05-04 22:06 1.19282 -79.83533 34860 ft 493 kts 178°
2026-05-04 22:07 1.12425 -79.83595 34859 ft 493 kts 178°
2026-05-04 22:07 1.05565 -79.83661 34860 ft 493 kts 178°
2026-05-04 22:08 0.99863 -79.83716 34860 ft 493 kts 178°
2026-05-04 22:08 0.93001 -79.83780 34860 ft 493 kts 178°
2026-05-04 22:09 0.86147 -79.83845 34861 ft 493 kts 178°
2026-05-04 22:09 0.79280 -79.83910 34861 ft 493 kts 178°
2026-05-04 22:10 0.72379 -79.83975 34867 ft 493 kts 178°
2026-05-04 22:10 0.65520 -79.84039 34869 ft 493 kts 177°
2026-05-04 22:11 0.58664 -79.84104 34878 ft 493 kts 177°
2026-05-04 22:11 0.51806 -79.84171 34885 ft 493 kts 177°
2026-05-04 22:12 0.44947 -79.84235 34888 ft 493 kts 177°
2026-05-04 22:12 0.38086 -79.84299 34896 ft 492 kts 177°
2026-05-04 22:13 0.31238 -79.84364 34905 ft 493 kts 177°
2026-05-04 22:13 0.24376 -79.84429 34914 ft 493 kts 177°
2026-05-04 22:14 0.17525 -79.84492 34917 ft 492 kts 177°
2026-05-04 22:14 0.10672 -79.84558 34922 ft 492 kts 177°
2026-05-04 22:15 0.03820 -79.84622 34932 ft 492 kts 177°
2026-05-04 22:15 -0.03026 -79.84688 34934 ft 492 kts 177°
2026-05-04 22:16 -0.09871 -79.84753 34938 ft 492 kts 177°
2026-05-04 22:16 -0.16719 -79.84816 34965 ft 492 kts 177°
2026-05-04 22:17 -0.23576 -79.84879 34979 ft 493 kts 177°
2026-05-04 22:17 -0.30441 -79.84945 34981 ft 493 kts 177°
2026-05-04 22:18 -0.37300 -79.85010 34988 ft 493 kts 177°
2026-05-04 22:18 -0.44164 -79.85075 34987 ft 493 kts 177°
2026-05-04 22:19 -0.51025 -79.85140 34989 ft 494 kts 178°
2026-05-04 22:19 -0.57903 -79.85204 35002 ft 494 kts 178°
2026-05-04 22:20 -0.64780 -79.85270 35006 ft 494 kts 178°
2026-05-04 22:20 -0.71652 -79.85335 35047 ft 495 kts 178°
2026-05-04 22:21 -0.78541 -79.85400 35044 ft 495 kts 177°
2026-05-04 22:21 -0.85430 -79.85465 35045 ft 495 kts 178°
2026-05-04 22:22 -0.92327 -79.85530 35038 ft 496 kts 178°
2026-05-04 22:22 -0.99225 -79.85595 35053 ft 497 kts 178°
2026-05-04 22:23 -1.06144 -79.85661 35037 ft 497 kts 178°
2026-05-04 22:23 -1.13067 -79.85726 35027 ft 498 kts 178°
2026-05-04 22:24 -1.20000 -79.85790 35018 ft 498 kts 178°
2026-05-04 22:24 -1.26945 -79.85856 35022 ft 499 kts 178°
2026-05-04 22:25 -1.33885 -79.85923 35008 ft 499 kts 178°
2026-05-04 22:25 -1.40842 -79.85989 35000 ft 500 kts 178°
2026-05-04 22:26 -1.47795 -79.86054 34996 ft 501 kts 178°
2026-05-04 22:26 -1.54777 -79.86120 34975 ft 501 kts 178°
2026-05-04 22:27 -1.61764 -79.86187 34958 ft 502 kts 178°
2026-05-04 22:27 -1.68740 -79.86254 34936 ft 502 kts 178°
2026-05-04 22:28 -1.75720 -79.86321 34914 ft 502 kts 178°
2026-05-04 22:28 -1.82705 -79.86387 34897 ft 502 kts 178°
2026-05-04 22:29 -1.89221 -79.86450 34879 ft 502 kts 178°
2026-05-04 22:29 -1.96214 -79.86516 34857 ft 503 kts 178°
2026-05-04 22:30 -2.03208 -79.86583 34843 ft 503 kts 178°
2026-05-04 22:30 -2.10204 -79.86651 34833 ft 503 kts 178°
2026-05-04 22:31 -2.17171 -79.86292 34831 ft 500 kts 171°
2026-05-04 22:31 -2.24069 -79.85377 34833 ft 500 kts 169°
2026-05-04 22:32 -2.30949 -79.84409 34841 ft 499 kts 169°
2026-05-04 22:32 -2.37841 -79.83496 34858 ft 499 kts 170°
2026-05-04 22:33 -2.44731 -79.82604 34877 ft 499 kts 170°
2026-05-04 22:33 -2.51620 -79.81719 34901 ft 499 kts 170°
2026-05-04 22:34 -2.58505 -79.80832 34928 ft 499 kts 170°
2026-05-04 22:34 -2.65390 -79.79945 34957 ft 499 kts 170°
2026-05-04 22:35 -2.72270 -79.79056 34970 ft 498 kts 170°
2026-05-04 22:35 -2.79146 -79.78169 34982 ft 498 kts 170°
2026-05-04 22:36 -2.86014 -79.77288 34991 ft 498 kts 170°
2026-05-04 22:36 -2.92885 -79.76411 34982 ft 498 kts 170°
2026-05-04 22:37 -2.99750 -79.75532 34973 ft 497 kts 170°
2026-05-04 22:37 -3.06616 -79.74651 34969 ft 497 kts 170°
2026-05-04 22:38 -3.13478 -79.73773 34955 ft 497 kts 171°
2026-05-04 22:38 -3.20339 -79.72894 34948 ft 498 kts 171°
2026-05-04 22:39 -3.27199 -79.72016 34931 ft 496 kts 171°
2026-05-04 22:39 -3.34050 -79.71138 34926 ft 496 kts 171°
2026-05-04 22:40 -3.40901 -79.70266 34919 ft 497 kts 171°
2026-05-04 22:40 -3.47755 -79.69385 34914 ft 496 kts 171°
2026-05-04 22:41 -3.54604 -79.68505 34924 ft 496 kts 171°
2026-05-04 22:41 -3.61449 -79.67627 34950 ft 496 kts 171°
2026-05-04 22:42 -3.68291 -79.66750 34959 ft 496 kts 171°
2026-05-04 22:42 -3.75145 -79.65872 34995 ft 496 kts 171°
2026-05-04 22:43 -3.82035 -79.64988 35002 ft 496 kts 171°
2026-05-04 22:43 -3.88834 -79.64116 35014 ft 496 kts 171°
2026-05-04 22:44 -3.95728 -79.63232 35036 ft 496 kts 171°
2026-05-04 22:44 -4.02564 -79.62356 35040 ft 496 kts 171°
2026-05-04 22:45 -4.08261 -79.61624 35043 ft 496 kts 171°
2026-05-04 22:45 -4.19646 -79.60164 35047 ft 496 kts 171°
2026-05-04 22:46 -4.26497 -79.59284 35045 ft 497 kts 171°
2026-05-04 22:46 -4.32238 -79.58546 35037 ft 496 kts 171°
2026-05-04 22:47 -4.39097 -79.57664 35036 ft 497 kts 171°
2026-05-04 22:47 -4.45957 -79.56784 35026 ft 497 kts 171°
2026-05-04 22:48 -4.52822 -79.55905 35017 ft 498 kts 171°
2026-05-04 22:48 -4.59696 -79.55041 35019 ft 498 kts 171°
2026-05-04 22:49 -4.66580 -79.54178 35005 ft 498 kts 171°
2026-05-04 22:49 -4.73457 -79.53315 35002 ft 499 kts 171°
2026-05-04 22:50 -4.80350 -79.52450 35000 ft 499 kts 170°
2026-05-04 22:50 -4.87248 -79.51581 34996 ft 500 kts 170°
2026-05-04 22:51 -4.94152 -79.50713 34993 ft 500 kts 170°
2026-05-04 22:51 -5.01062 -79.49845 34987 ft 500 kts 170°
2026-05-04 22:52 -5.07977 -79.48975 34995 ft 501 kts 170°
2026-05-04 22:52 -5.14900 -79.48104 34994 ft 502 kts 170°
2026-05-04 22:53 -5.21837 -79.47230 35002 ft 503 kts 170°
2026-05-04 22:53 -5.28779 -79.46357 34996 ft 503 kts 170°
2026-05-04 22:54 -5.35725 -79.45482 35002 ft 503 kts 170°
2026-05-04 22:54 -5.42677 -79.44606 35001 ft 504 kts 170°
2026-05-04 22:55 -5.49632 -79.43729 34995 ft 504 kts 170°
2026-05-04 22:55 -5.56596 -79.42851 35000 ft 505 kts 170°
2026-05-04 22:56 -5.63564 -79.41972 35000 ft 505 kts 170°
2026-05-04 22:56 -5.70528 -79.41094 35025 ft 504 kts 170°
2026-05-04 22:57 -5.77489 -79.40217 35027 ft 505 kts 170°
2026-05-04 22:57 -5.84459 -79.39339 35025 ft 504 kts 170°
2026-05-04 22:58 -5.91425 -79.38461 35028 ft 504 kts 170°
2026-05-04 22:58 -5.98385 -79.37582 35027 ft 504 kts 170°
2026-05-04 22:59 -6.05354 -79.36702 35030 ft 505 kts 170°
2026-05-04 22:59 -6.12336 -79.35821 35024 ft 506 kts 170°
2026-05-04 23:00 -6.19331 -79.34939 35029 ft 506 kts 170°
2026-05-04 23:00 -6.26322 -79.34054 35015 ft 506 kts 170°
2026-05-04 23:01 -6.33320 -79.33170 35013 ft 507 kts 170°
2026-05-04 23:01 -6.40314 -79.32286 35021 ft 507 kts 170°
2026-05-04 23:02 -6.47320 -79.31400 35016 ft 507 kts 170°
2026-05-04 23:02 -6.54325 -79.30514 35020 ft 507 kts 170°
2026-05-04 23:03 -6.61324 -79.29629 35014 ft 506 kts 170°
2026-05-04 23:03 -6.68323 -79.28743 35015 ft 507 kts 171°
2026-05-04 23:04 -6.75321 -79.27857 35026 ft 507 kts 170°
2026-05-04 23:04 -6.82329 -79.26970 35036 ft 507 kts 170°
2026-05-04 23:05 -6.89331 -79.26085 35053 ft 508 kts 170°
2026-05-04 23:05 -6.96339 -79.25196 35064 ft 508 kts 170°
2026-05-04 23:06 -7.03349 -79.24308 35079 ft 507 kts 171°
2026-05-04 23:06 -7.10362 -79.23418 35099 ft 508 kts 170°
2026-05-04 23:07 -7.17372 -79.22530 35096 ft 508 kts 170°
2026-05-04 23:07 -7.24381 -79.21641 35099 ft 509 kts 171°
2026-05-04 23:08 -7.31396 -79.20751 35094 ft 508 kts 171°
2026-05-04 23:08 -7.38412 -79.19860 35080 ft 508 kts 171°
2026-05-04 23:09 -7.45423 -79.18969 35070 ft 508 kts 171°
2026-05-04 23:09 -7.52441 -79.18078 35069 ft 508 kts 171°
2026-05-04 23:10 -7.59461 -79.17187 35052 ft 509 kts 171°
2026-05-04 23:10 -7.66537 -79.16288 35029 ft 509 kts 171°
2026-05-04 23:11 -7.73566 -79.15395 35009 ft 509 kts 171°
2026-05-04 23:11 -7.80590 -79.14502 34986 ft 509 kts 171°
2026-05-04 23:12 -7.87568 -79.13613 34972 ft 510 kts 171°
2026-05-04 23:12 -7.94605 -79.12717 34953 ft 510 kts 171°
2026-05-04 23:13 -8.01692 -79.11814 34944 ft 510 kts 171°
2026-05-04 23:13 -8.08751 -79.10916 34943 ft 511 kts 171°
2026-05-04 23:14 -8.15743 -79.09709 34934 ft 509 kts 165°
2026-05-04 23:14 -8.22580 -79.07865 34933 ft 508 kts 162°
2026-05-04 23:15 -8.29340 -79.05933 34956 ft 510 kts 162°
2026-05-04 23:15 -8.32786 -79.04970 35280 ft 510 kts 162°
2026-05-04 23:15 -8.36180 -79.04034 35591 ft 509 kts 163°
2026-05-04 23:16 -8.39598 -79.03099 35926 ft 508 kts 163°
2026-05-04 23:16 -8.43054 -79.02159 36249 ft 507 kts 163°
2026-05-04 23:16 -8.46464 -79.01232 36517 ft 507 kts 163°
2026-05-04 23:16 -8.49867 -79.00306 36808 ft 506 kts 163°
2026-05-04 23:17 -8.53263 -78.99381 36928 ft 504 kts 163°
2026-05-04 23:17 -8.56643 -78.98460 36955 ft 502 kts 163°
2026-05-04 23:17 -8.63348 -78.96632 36962 ft 497 kts 163°
2026-05-04 23:18 -8.70014 -78.94813 36957 ft 496 kts 163°
2026-05-04 23:18 -8.76671 -78.92996 36952 ft 496 kts 163°
2026-05-04 23:19 -8.83322 -78.91178 36951 ft 496 kts 163°
2026-05-04 23:19 -8.89985 -78.89358 36944 ft 496 kts 163°
2026-05-04 23:20 -8.96654 -78.87534 36935 ft 497 kts 163°
2026-05-04 23:20 -9.03329 -78.85710 36935 ft 497 kts 163°
2026-05-04 23:21 -9.10011 -78.83882 36914 ft 497 kts 163°
2026-05-04 23:21 -9.16684 -78.82054 36911 ft 497 kts 163°
2026-05-04 23:22 -9.23366 -78.80226 36934 ft 497 kts 163°
2026-05-04 23:22 -9.30048 -78.78397 36935 ft 497 kts 163°
2026-05-04 23:23 -9.36724 -78.76569 36931 ft 497 kts 163°
2026-05-04 23:23 -9.43419 -78.74734 36923 ft 498 kts 163°
2026-05-04 23:24 -9.50108 -78.72900 36912 ft 498 kts 163°
2026-05-04 23:24 -9.55670 -78.71375 36922 ft 499 kts 163°
2026-05-04 23:25 -9.62371 -78.69537 36922 ft 499 kts 163°
2026-05-04 23:25 -9.69064 -78.67701 36907 ft 499 kts 163°
2026-05-04 23:26 -9.75716 -78.65710 36908 ft 497 kts 157°
2026-05-04 23:26 -9.82041 -78.62919 36923 ft 496 kts 152°
2026-05-04 23:27 -9.88271 -78.59888 36923 ft 496 kts 152°
2026-05-04 23:27 -9.94516 -78.56895 36922 ft 496 kts 153°
2026-05-04 23:28 -10.00788 -78.53943 36923 ft 497 kts 153°
2026-05-04 23:28 -10.07065 -78.51002 36929 ft 498 kts 153°
2026-05-04 23:29 -10.13352 -78.48056 36949 ft 498 kts 153°
2026-05-04 23:29 -10.19642 -78.45105 36987 ft 498 kts 153°
2026-05-04 23:30 -10.25923 -78.42155 37027 ft 498 kts 153°
2026-05-04 23:30 -10.32208 -78.39202 37061 ft 498 kts 153°
2026-05-04 23:31 -10.38501 -78.36245 37071 ft 498 kts 153°
2026-05-04 23:31 -10.44784 -78.33291 37073 ft 498 kts 153°
2026-05-04 23:32 -10.51071 -78.30332 37073 ft 498 kts 153°
2026-05-04 23:32 -10.57354 -78.27372 37074 ft 498 kts 153°
2026-05-04 23:33 -10.63677 -78.24394 37073 ft 498 kts 153°
2026-05-04 23:33 -10.69962 -78.21433 37073 ft 498 kts 153°
2026-05-04 23:34 -10.76219 -78.18482 37065 ft 499 kts 153°
2026-05-04 23:34 -10.82552 -78.15497 37063 ft 498 kts 153°
2026-05-04 23:35 -10.88837 -78.12533 37065 ft 498 kts 153°
2026-05-04 23:35 -10.95132 -78.09562 37053 ft 499 kts 153°
2026-05-04 23:36 -11.01389 -78.06608 37056 ft 499 kts 154°
2026-05-04 23:36 -11.07733 -78.03611 37043 ft 500 kts 154°
2026-05-04 23:37 -11.14042 -78.00629 37042 ft 499 kts 154°
2026-05-04 23:37 -11.20342 -77.97651 37032 ft 500 kts 154°
2026-05-04 23:38 -11.26662 -77.94660 37026 ft 501 kts 154°
2026-05-04 23:38 -11.32977 -77.91667 37020 ft 501 kts 154°
2026-05-04 23:39 -11.39291 -77.88676 37017 ft 501 kts 154°
2026-05-04 23:39 -11.45613 -77.85681 37009 ft 501 kts 154°
2026-05-04 23:40 -11.51926 -77.82688 37002 ft 501 kts 154°
2026-05-04 23:40 -11.58242 -77.79692 36999 ft 501 kts 154°
2026-05-04 23:41 -11.64560 -77.76695 36991 ft 501 kts 154°
2026-05-04 23:41 -11.70877 -77.73696 36990 ft 501 kts 154°
2026-05-04 23:42 -11.77199 -77.70692 36989 ft 501 kts 154°
2026-05-04 23:42 -11.83516 -77.67690 36995 ft 501 kts 154°
2026-05-04 23:43 -11.89834 -77.64685 36999 ft 501 kts 154°
2026-05-04 23:43 -11.96149 -77.61680 36996 ft 501 kts 154°
2026-05-04 23:44 -12.02467 -77.58672 36989 ft 501 kts 154°
2026-05-04 23:44 -12.08785 -77.55664 36974 ft 501 kts 154°
2026-05-04 23:45 -12.15109 -77.52653 36971 ft 502 kts 154°
2026-05-04 23:45 -12.21440 -77.49637 36971 ft 502 kts 154°
2026-05-04 23:46 -12.27766 -77.46619 36972 ft 502 kts 154°
2026-05-04 23:46 -12.34101 -77.43595 36971 ft 502 kts 154°
2026-05-04 23:47 -12.40475 -77.40552 36970 ft 502 kts 154°
2026-05-04 23:47 -12.46799 -77.37526 36972 ft 502 kts 154°
2026-05-04 23:48 -12.53094 -77.34515 36970 ft 502 kts 154°
2026-05-04 23:48 -12.59423 -77.31487 36971 ft 502 kts 154°
2026-05-04 23:49 -12.65804 -77.28435 36977 ft 503 kts 154°
2026-05-04 23:49 -12.72106 -77.25421 36978 ft 503 kts 154°
2026-05-04 23:50 -12.78442 -77.22385 36982 ft 503 kts 154°
2026-05-04 23:50 -12.84836 -77.19321 36978 ft 503 kts 154°
2026-05-04 23:51 -12.91174 -77.16280 36978 ft 503 kts 154°
2026-05-04 23:51 -12.97512 -77.13240 36983 ft 503 kts 154°
2026-05-04 23:52 -13.03856 -77.10194 36983 ft 503 kts 154°
2026-05-04 23:52 -13.10201 -77.07146 37007 ft 503 kts 154°
2026-05-04 23:53 -13.16545 -77.04096 37027 ft 503 kts 154°
2026-05-04 23:53 -13.22881 -77.01046 37026 ft 504 kts 154°
2026-05-04 23:54 -13.29238 -76.97984 37028 ft 504 kts 154°
2026-05-04 23:54 -13.35588 -76.94926 37018 ft 504 kts 154°
2026-05-04 23:55 -13.41938 -76.91869 37017 ft 504 kts 154°
2026-05-04 23:56 -13.51468 -76.87274 37008 ft 504 kts 154°
2026-05-04 23:56 -13.57822 -76.84208 37002 ft 504 kts 154°
2026-05-04 23:57 -13.64166 -76.81145 36999 ft 504 kts 155°
2026-05-04 23:57 -13.70517 -76.78077 36995 ft 504 kts 155°
2026-05-04 23:58 -13.76866 -76.75007 36988 ft 504 kts 155°
2026-05-04 23:58 -13.83219 -76.71936 36971 ft 504 kts 155°
2026-05-04 23:59 -13.89558 -76.68869 36970 ft 503 kts 155°
2026-05-04 23:59 -13.95898 -76.65797 36970 ft 503 kts 155°
2026-05-05 00:00 -14.02231 -76.62725 36970 ft 504 kts 155°
2026-05-05 00:00 -14.08586 -76.59642 36971 ft 505 kts 155°
2026-05-05 00:01 -14.14931 -76.56566 36971 ft 504 kts 155°
2026-05-05 00:01 -14.21341 -76.53649 36971 ft 504 kts 161°
2026-05-05 00:02 -14.28064 -76.51624 36971 ft 503 kts 166°
2026-05-05 00:02 -14.33712 -76.50179 36971 ft 504 kts 167°
2026-05-05 00:03 -14.40511 -76.48403 36973 ft 504 kts 166°
2026-05-05 00:03 -14.47302 -76.46563 36971 ft 504 kts 166°
2026-05-05 00:04 -14.54077 -76.44705 36973 ft 504 kts 166°
2026-05-05 00:04 -14.60858 -76.42843 36978 ft 504 kts 166°
2026-05-05 00:05 -14.67636 -76.40983 36981 ft 504 kts 166°
2026-05-05 00:05 -14.74414 -76.39124 36981 ft 504 kts 166°
2026-05-05 00:06 -14.81205 -76.37259 36978 ft 505 kts 166°
2026-05-05 00:06 -14.87986 -76.35397 36978 ft 505 kts 166°
2026-05-05 00:07 -14.94784 -76.33528 36989 ft 505 kts 166°
2026-05-05 00:07 -15.01579 -76.31659 36990 ft 506 kts 166°
2026-05-05 00:08 -15.08379 -76.29783 36990 ft 505 kts 166°
2026-05-05 00:08 -15.15175 -76.27911 36989 ft 505 kts 166°
2026-05-05 00:09 -15.21972 -76.26040 36998 ft 506 kts 166°
2026-05-05 00:09 -15.28779 -76.24161 36999 ft 506 kts 166°
2026-05-05 00:10 -15.35575 -76.22287 36998 ft 506 kts 166°
2026-05-05 00:10 -15.42373 -76.20410 37013 ft 505 kts 166°
2026-05-05 00:11 -15.49168 -76.18532 37044 ft 505 kts 166°
2026-05-05 00:11 -15.55978 -76.16649 37280 ft 506 kts 166°
2026-05-05 00:11 -15.59382 -76.15707 37536 ft 506 kts 167°
2026-05-05 00:12 -15.62781 -76.14767 37784 ft 506 kts 167°
2026-05-05 00:12 -15.66179 -76.13827 38062 ft 505 kts 167°
2026-05-05 00:12 -15.69567 -76.12888 38327 ft 504 kts 167°
2026-05-05 00:12 -15.72952 -76.11950 38569 ft 503 kts 167°
2026-05-05 00:13 -15.76338 -76.11012 38805 ft 503 kts 167°
2026-05-05 00:13 -15.79709 -76.10078 39031 ft 502 kts 167°
2026-05-05 00:13 -15.83084 -76.09142 39092 ft 502 kts 167°
2026-05-05 00:14 -15.89820 -76.07268 39112 ft 501 kts 167°
2026-05-05 00:14 -15.96554 -76.05398 39122 ft 501 kts 167°
2026-05-05 00:15 -16.03283 -76.03527 39118 ft 501 kts 167°
2026-05-05 00:15 -16.10012 -76.01658 39127 ft 501 kts 167°
2026-05-05 00:16 -16.16757 -75.99782 39129 ft 503 kts 167°
2026-05-05 00:16 -16.23527 -75.97897 39137 ft 504 kts 167°
2026-05-05 00:17 -16.30305 -75.96006 39138 ft 504 kts 167°
2026-05-05 00:17 -16.37076 -75.94117 39144 ft 504 kts 167°
2026-05-05 00:18 -16.43852 -75.92225 39129 ft 504 kts 167°
2026-05-05 00:18 -16.50622 -75.90336 39094 ft 504 kts 167°
2026-05-05 00:19 -16.57388 -75.88446 39066 ft 503 kts 167°
2026-05-05 00:19 -16.64165 -75.86550 39095 ft 504 kts 167°
2026-05-05 00:20 -16.70942 -75.84651 39130 ft 504 kts 167°
2026-05-05 00:20 -16.77710 -75.82754 39127 ft 504 kts 167°
2026-05-05 00:21 -16.84482 -75.80855 39127 ft 504 kts 167°
2026-05-05 00:21 -16.91260 -75.78954 39131 ft 504 kts 167°
2026-05-05 00:22 -16.98038 -75.77051 39132 ft 504 kts 167°
2026-05-05 00:22 -17.04817 -75.75147 39127 ft 505 kts 167°
2026-05-05 00:23 -17.11608 -75.73238 39127 ft 505 kts 167°
2026-05-05 00:23 -17.18390 -75.71330 39127 ft 505 kts 168°
2026-05-05 00:24 -17.25182 -75.69418 39123 ft 505 kts 168°
2026-05-05 00:24 -17.31977 -75.67504 39089 ft 506 kts 168°
2026-05-05 00:25 -17.38775 -75.65587 39082 ft 506 kts 168°
2026-05-05 00:25 -17.45571 -75.63668 39082 ft 506 kts 168°
2026-05-05 00:26 -17.52377 -75.61742 39090 ft 507 kts 168°
2026-05-05 00:26 -17.59186 -75.59818 39092 ft 507 kts 168°
2026-05-05 00:27 -17.65997 -75.57891 39091 ft 507 kts 168°
2026-05-05 00:27 -17.72811 -75.55961 39092 ft 507 kts 168°
2026-05-05 00:28 -17.79627 -75.54031 39085 ft 507 kts 168°
2026-05-05 00:28 -17.86490 -75.52086 39048 ft 507 kts 168°
2026-05-05 00:29 -17.93260 -75.50167 39013 ft 507 kts 168°
2026-05-05 00:29 -18.00115 -75.48220 38973 ft 507 kts 168°
2026-05-05 00:30 -18.06944 -75.46278 38971 ft 509 kts 168°
2026-05-05 00:30 -18.13776 -75.44334 38970 ft 509 kts 168°
2026-05-05 00:31 -18.20615 -75.42389 38971 ft 509 kts 168°
2026-05-05 00:31 -18.27452 -75.40439 38970 ft 509 kts 168°
2026-05-05 00:32 -18.34282 -75.38484 38971 ft 509 kts 168°
2026-05-05 00:32 -18.41061 -75.36478 38971 ft 509 kts 167°
2026-05-05 00:33 -18.47919 -75.34411 38961 ft 509 kts 167°
2026-05-05 00:33 -18.54738 -75.32356 38961 ft 510 kts 167°
2026-05-05 00:34 -18.61554 -75.30305 38962 ft 509 kts 167°
2026-05-05 00:34 -18.68367 -75.28256 38962 ft 510 kts 167°
2026-05-05 00:35 -18.75193 -75.26198 38962 ft 510 kts 167°
2026-05-05 00:35 -18.82018 -75.24141 38962 ft 510 kts 167°
2026-05-05 00:36 -18.88844 -75.22082 38962 ft 510 kts 167°
2026-05-05 00:36 -18.95673 -75.20020 38962 ft 511 kts 167°
2026-05-05 00:37 -19.02506 -75.17955 38962 ft 511 kts 167°
2026-05-05 00:37 -19.09347 -75.15886 38963 ft 511 kts 167°
2026-05-05 00:38 -19.16190 -75.13811 38962 ft 512 kts 167°
2026-05-05 00:38 -19.23038 -75.11733 38962 ft 512 kts 167°
2026-05-05 00:39 -19.29889 -75.09654 38962 ft 512 kts 167°
2026-05-05 00:39 -19.36741 -75.07574 38962 ft 513 kts 167°
2026-05-05 00:40 -19.43555 -75.05504 38962 ft 512 kts 167°
2026-05-05 00:40 -19.50452 -75.03407 38962 ft 512 kts 167°
2026-05-05 00:41 -19.57314 -75.01319 38961 ft 513 kts 167°
2026-05-05 00:41 -19.63020 -74.99580 38962 ft 513 kts 167°
2026-05-05 00:42 -19.69882 -74.97488 38962 ft 513 kts 167°
2026-05-05 00:42 -19.76740 -74.95396 38962 ft 512 kts 167°
2026-05-05 00:43 -19.83589 -74.93306 38963 ft 512 kts 167°
2026-05-05 00:43 -19.90438 -74.91213 38963 ft 512 kts 167°
2026-05-05 00:44 -19.97285 -74.89116 38962 ft 512 kts 167°
2026-05-05 00:44 -20.04120 -74.87018 38966 ft 512 kts 168°
2026-05-05 00:45 -20.10976 -74.84908 38965 ft 512 kts 168°
2026-05-05 00:45 -20.17848 -74.82793 38962 ft 514 kts 168°
2026-05-05 00:46 -20.24725 -74.80691 38970 ft 514 kts 168°
2026-05-05 00:46 -20.31594 -74.78585 38972 ft 514 kts 168°
2026-05-05 00:47 -20.38461 -74.76473 38971 ft 513 kts 168°
2026-05-05 00:47 -20.45331 -74.74357 38972 ft 513 kts 168°
2026-05-05 00:48 -20.52191 -74.72243 38971 ft 513 kts 168°
2026-05-05 00:48 -20.59054 -74.70127 38971 ft 514 kts 168°
2026-05-05 00:49 -20.65929 -74.68004 38962 ft 514 kts 168°
2026-05-05 00:49 -20.72802 -74.65879 38962 ft 515 kts 168°
2026-05-05 00:50 -20.79675 -74.63749 38976 ft 514 kts 168°
2026-05-05 00:50 -20.86544 -74.61615 38988 ft 515 kts 168°
2026-05-05 00:51 -20.93423 -74.59484 38989 ft 515 kts 168°
2026-05-05 00:51 -21.00308 -74.57349 38989 ft 515 kts 168°
2026-05-05 00:52 -21.07199 -74.55210 38992 ft 516 kts 168°
2026-05-05 00:52 -21.14090 -74.53067 38990 ft 516 kts 168°
2026-05-05 00:53 -21.20976 -74.50919 38989 ft 516 kts 168°
2026-05-05 00:53 -21.27873 -74.48756 38991 ft 517 kts 168°
2026-05-05 00:54 -21.34775 -74.46589 38992 ft 517 kts 168°
2026-05-05 00:54 -21.41679 -74.44422 38988 ft 517 kts 169°
2026-05-05 00:55 -21.48584 -74.42254 38992 ft 517 kts 169°
2026-05-05 00:55 -21.55492 -74.40082 38988 ft 517 kts 169°
2026-05-05 00:56 -21.62401 -74.37905 38990 ft 518 kts 169°
2026-05-05 00:56 -21.69318 -74.35724 38985 ft 518 kts 169°
2026-05-05 00:57 -21.76237 -74.33542 38986 ft 518 kts 169°
2026-05-05 00:57 -21.83143 -74.31364 38985 ft 518 kts 169°
2026-05-05 00:58 -21.90062 -74.29175 38992 ft 518 kts 169°
2026-05-05 00:58 -21.96974 -74.26987 38992 ft 518 kts 169°
2026-05-05 00:59 -22.03891 -74.24792 38987 ft 518 kts 169°
2026-05-05 00:59 -22.10813 -74.22594 38992 ft 518 kts 169°
2026-05-05 01:00 -22.17734 -74.20398 38992 ft 518 kts 169°
2026-05-05 01:00 -22.24652 -74.18201 38989 ft 519 kts 169°
2026-05-05 01:01 -22.31583 -74.15997 38992 ft 519 kts 169°
2026-05-05 01:01 -22.38506 -74.13793 38992 ft 519 kts 169°
2026-05-05 01:02 -22.45479 -74.11571 38992 ft 519 kts 169°
2026-05-05 01:02 -22.52409 -74.09363 38992 ft 519 kts 169°
2026-05-05 01:03 -22.59281 -74.07164 38986 ft 518 kts 169°
2026-05-05 01:03 -22.66209 -74.04948 38992 ft 519 kts 169°
2026-05-05 01:04 -22.73132 -74.02733 38991 ft 519 kts 169°
2026-05-05 01:04 -22.83569 -73.99384 38992 ft 519 kts 169°
2026-05-05 01:05 -22.90483 -73.97161 38990 ft 518 kts 169°
2026-05-05 01:05 -22.97393 -73.94940 38988 ft 518 kts 170°
2026-05-05 01:06 -23.04292 -73.92722 39002 ft 517 kts 170°
2026-05-05 01:06 -23.11188 -73.90502 39023 ft 517 kts 170°
2026-05-05 01:07 -23.18099 -73.88276 39014 ft 518 kts 170°
2026-05-05 01:07 -23.25003 -73.86049 39023 ft 517 kts 170°
2026-05-05 01:08 -23.31902 -73.83820 39018 ft 517 kts 170°
2026-05-05 01:08 -23.38811 -73.81586 39013 ft 518 kts 170°
2026-05-05 01:09 -23.45719 -73.79350 39024 ft 518 kts 170°
2026-05-05 01:09 -23.52632 -73.77114 39015 ft 518 kts 170°
2026-05-05 01:10 -23.59536 -73.74871 39020 ft 518 kts 170°
2026-05-05 01:10 -23.66435 -73.72625 39012 ft 518 kts 171°
2026-05-05 01:11 -23.73338 -73.70377 39011 ft 518 kts 171°
2026-05-05 01:11 -23.80247 -73.68129 39015 ft 518 kts 171°
2026-05-05 01:12 -23.87148 -73.65882 39023 ft 518 kts 171°
2026-05-05 01:12 -23.94053 -73.63630 39007 ft 518 kts 171°
2026-05-05 01:13 -24.00942 -73.61264 39017 ft 523 kts 165°
2026-05-05 01:13 -24.07323 -73.57228 39023 ft 539 kts 145°
2026-05-05 01:14 -24.12625 -73.51340 39015 ft 546 kts 134°
2026-05-05 01:14 -24.17683 -73.45134 39011 ft 545 kts 137°
2026-05-05 01:15 -24.22994 -73.39217 39007 ft 544 kts 140°
2026-05-05 01:15 -24.28445 -73.33446 39025 ft 544 kts 140°
2026-05-05 01:16 -24.33900 -73.27689 39040 ft 544 kts 140°
2026-05-05 01:16 -24.39339 -73.21913 39045 ft 545 kts 140°
2026-05-05 01:17 -24.44777 -73.16114 39045 ft 545 kts 140°
2026-05-05 01:17 -24.50207 -73.10315 39045 ft 544 kts 140°
2026-05-05 01:18 -24.55633 -73.04508 39039 ft 545 kts 140°
2026-05-05 01:18 -24.61064 -72.98693 39035 ft 546 kts 140°
2026-05-05 01:19 -24.66492 -72.92866 39035 ft 545 kts 140°
2026-05-05 01:19 -24.71907 -72.87035 39036 ft 545 kts 140°
2026-05-05 01:20 -24.77334 -72.81197 39036 ft 545 kts 140°
2026-05-05 01:20 -24.82763 -72.75355 39036 ft 546 kts 140°
2026-05-05 01:21 -24.87269 -72.70501 39036 ft 546 kts 140°
2026-05-05 01:21 -24.92700 -72.64644 39035 ft 546 kts 140°
2026-05-05 01:22 -24.98122 -72.58787 39036 ft 546 kts 140°
2026-05-05 01:22 -25.03547 -72.52920 39036 ft 546 kts 140°
2026-05-05 01:23 -25.08969 -72.47061 39036 ft 546 kts 140°
2026-05-05 01:23 -25.14408 -72.41210 39035 ft 546 kts 141°
2026-05-05 01:24 -25.19857 -72.35356 39036 ft 546 kts 141°
2026-05-05 01:24 -25.25309 -72.29495 39036 ft 547 kts 141°
2026-05-05 01:25 -25.30758 -72.23622 39037 ft 547 kts 141°
2026-05-05 01:25 -25.36206 -72.17741 39029 ft 548 kts 141°
2026-05-05 01:26 -25.41649 -72.11857 39026 ft 547 kts 141°
2026-05-05 01:26 -25.47097 -72.05965 39027 ft 548 kts 141°
2026-05-05 01:27 -25.52579 -72.00027 39026 ft 548 kts 141°
2026-05-05 01:27 -25.58027 -71.94117 39027 ft 548 kts 141°
2026-05-05 01:28 -25.63425 -71.88253 39027 ft 547 kts 142°
2026-05-05 01:28 -25.68886 -71.82299 39027 ft 547 kts 141°
2026-05-05 01:29 -25.74279 -71.76409 39027 ft 548 kts 141°
2026-05-05 01:29 -25.79747 -71.70439 39026 ft 548 kts 141°
2026-05-05 01:30 -25.85173 -71.64507 39026 ft 548 kts 141°
2026-05-05 01:30 -25.90600 -71.58572 39026 ft 547 kts 141°
2026-05-05 01:31 -25.95989 -71.52673 39027 ft 547 kts 141°
2026-05-05 01:31 -26.01444 -71.46691 39026 ft 547 kts 142°
2026-05-05 01:32 -26.06868 -71.40737 39026 ft 549 kts 141°
2026-05-05 01:32 -26.12294 -71.34769 39028 ft 549 kts 141°
2026-05-05 01:33 -26.17720 -71.28789 39006 ft 548 kts 142°
2026-05-05 01:33 -26.23134 -71.22820 39026 ft 548 kts 141°
2026-05-05 01:34 -26.28536 -71.16837 39026 ft 548 kts 141°
2026-05-05 01:34 -26.33938 -71.10847 39020 ft 548 kts 141°
2026-05-05 01:35 -26.39338 -71.04853 39022 ft 547 kts 141°
2026-05-05 01:35 -26.44722 -70.98854 39012 ft 547 kts 141°
2026-05-05 01:36 -26.50105 -70.92848 39026 ft 547 kts 141°
2026-05-05 01:36 -26.55488 -70.86839 39011 ft 547 kts 141°
2026-05-05 01:37 -26.60875 -70.80813 39010 ft 547 kts 141°
2026-05-05 01:37 -26.66254 -70.74794 39026 ft 547 kts 141°
2026-05-05 01:38 -26.71632 -70.68766 39021 ft 547 kts 141°
2026-05-05 01:38 -26.77012 -70.62737 39024 ft 548 kts 141°
2026-05-05 01:39 -26.82396 -70.56702 39026 ft 548 kts 141°
2026-05-05 01:39 -26.87776 -70.50662 39026 ft 547 kts 141°
2026-05-05 01:40 -26.93147 -70.44626 39009 ft 547 kts 141°
2026-05-05 01:40 -26.98520 -70.38575 39012 ft 548 kts 141°
2026-05-05 01:41 -27.03889 -70.32504 39011 ft 548 kts 141°
2026-05-05 01:41 -27.09261 -70.26427 39007 ft 549 kts 141°
2026-05-05 01:42 -27.14640 -70.20338 39023 ft 549 kts 141°
2026-05-05 01:42 -27.20011 -70.14248 39027 ft 549 kts 141°
2026-05-05 01:43 -27.25384 -70.08148 39019 ft 549 kts 141°
2026-05-05 01:43 -27.30745 -70.02023 39021 ft 550 kts 141°
2026-05-05 01:44 -27.36101 -69.95880 39014 ft 549 kts 141°
2026-05-05 01:44 -27.41451 -69.89745 39005 ft 549 kts 141°
2026-05-05 01:45 -27.46797 -69.83607 39007 ft 549 kts 141°
2026-05-05 01:45 -27.52063 -69.77352 39005 ft 556 kts 135°
2026-05-05 01:46 -27.56080 -69.69820 38995 ft 568 kts 116°
2026-05-05 01:46 -27.58815 -69.61433 38997 ft 571 kts 111°
2026-05-05 01:47 -27.61562 -69.53055 38993 ft 569 kts 114°
2026-05-05 01:47 -27.64585 -69.44755 38993 ft 568 kts 116°
2026-05-05 01:48 -27.67659 -69.36603 38989 ft 568 kts 116°
2026-05-05 01:48 -27.70737 -69.28410 38987 ft 567 kts 116°
2026-05-05 01:49 -27.73794 -69.20203 38980 ft 567 kts 116°
2026-05-05 01:49 -27.76894 -69.11981 38972 ft 564 kts 120°
2026-05-05 01:50 -27.81103 -69.04635 38972 ft 553 kts 135°
2026-05-05 01:50 -27.86080 -68.98054 38966 ft 551 kts 137°
2026-05-05 01:51 -27.91057 -68.91472 38952 ft 551 kts 136°
2026-05-05 01:51 -27.95912 -68.84769 38954 ft 551 kts 135°
2026-05-05 01:52 -28.00724 -68.78005 38959 ft 551 kts 134°
2026-05-05 01:52 -28.05524 -68.71254 38948 ft 550 kts 135°
2026-05-05 01:53 -28.10323 -68.64517 38947 ft 550 kts 134°
2026-05-05 01:53 -28.15121 -68.57766 38932 ft 550 kts 134°
2026-05-05 01:54 -28.19916 -68.51012 38936 ft 550 kts 134°
2026-05-05 01:54 -28.24702 -68.44256 38933 ft 549 kts 134°
2026-05-05 01:55 -28.29488 -68.37490 38906 ft 549 kts 134°
2026-05-05 01:55 -28.34250 -68.30709 38911 ft 549 kts 134°
2026-05-05 01:56 -28.38982 -68.23976 38895 ft 548 kts 134°
2026-05-05 01:56 -28.43781 -68.17164 38882 ft 549 kts 134°
2026-05-05 01:57 -28.48545 -68.10389 38888 ft 549 kts 134°
2026-05-05 01:57 -28.53293 -68.03623 38882 ft 548 kts 134°
2026-05-05 01:58 -28.58042 -67.96846 38878 ft 546 kts 134°
2026-05-05 01:58 -28.61969 -67.91232 38880 ft 545 kts 134°
2026-05-05 01:59 -28.66684 -67.84496 38864 ft 543 kts 134°
2026-05-05 01:59 -28.71399 -67.77770 38864 ft 543 kts 134°
2026-05-05 02:00 -28.76104 -67.71055 38858 ft 542 kts 134°
2026-05-05 02:00 -28.80798 -67.64338 38860 ft 541 kts 134°
2026-05-05 02:01 -28.85472 -67.57634 38859 ft 540 kts 134°
2026-05-05 02:01 -28.90136 -67.50933 38860 ft 539 kts 134°
2026-05-05 02:02 -28.94792 -67.44237 38860 ft 538 kts 134°
2026-05-05 02:02 -28.99468 -67.37502 38861 ft 537 kts 134°
2026-05-05 02:03 -29.04077 -67.30852 38862 ft 537 kts 134°
2026-05-05 02:03 -29.08698 -67.24172 38861 ft 535 kts 134°
2026-05-05 02:04 -29.13306 -67.17480 38867 ft 536 kts 134°
2026-05-05 02:04 -29.17905 -67.10784 38863 ft 534 kts 134°
2026-05-05 02:05 -29.22497 -67.04104 38861 ft 534 kts 134°
2026-05-05 02:05 -29.27119 -66.97382 38863 ft 534 kts 134°
2026-05-05 02:06 -29.31703 -66.90706 38858 ft 533 kts 134°
2026-05-05 02:06 -29.36277 -66.84028 38858 ft 532 kts 134°
2026-05-05 02:07 -29.40935 -66.77458 38861 ft 529 kts 137°
2026-05-05 02:07 -29.45769 -66.71121 38859 ft 527 kts 138°
2026-05-05 02:08 -29.50629 -66.64834 38859 ft 526 kts 138°
2026-05-05 02:08 -29.55459 -66.58531 38859 ft 526 kts 138°
2026-05-05 02:09 -29.60273 -66.52214 38852 ft 525 kts 137°
2026-05-05 02:09 -29.65075 -66.45904 38852 ft 524 kts 137°
2026-05-05 02:10 -29.69866 -66.39602 38852 ft 523 kts 137°
2026-05-05 02:10 -29.74644 -66.33303 38850 ft 522 kts 137°
2026-05-05 02:11 -29.79413 -66.27008 38850 ft 522 kts 137°
2026-05-05 02:11 -29.84183 -66.20701 38852 ft 521 kts 137°
2026-05-05 02:12 -29.91307 -66.11259 38850 ft 520 kts 137°
2026-05-05 02:13 -29.96037 -66.04960 38850 ft 520 kts 137°
2026-05-05 02:13 -30.00769 -65.98642 38850 ft 520 kts 137°
2026-05-05 02:14 -30.05501 -65.92332 38851 ft 520 kts 137°
2026-05-05 02:14 -30.10237 -65.86015 38852 ft 520 kts 137°
2026-05-05 02:15 -30.14971 -65.79693 38850 ft 520 kts 137°
2026-05-05 02:15 -30.19698 -65.73366 38851 ft 520 kts 137°
2026-05-05 02:16 -30.24398 -65.67008 38867 ft 520 kts 137°
2026-05-05 02:16 -30.29089 -65.60627 38879 ft 520 kts 137°
2026-05-05 02:17 -30.33766 -65.54261 38878 ft 519 kts 137°
2026-05-05 02:17 -30.38447 -65.47887 38886 ft 519 kts 137°
2026-05-05 02:18 -30.43135 -65.41528 38887 ft 519 kts 137°
2026-05-05 02:18 -30.47834 -65.35164 38886 ft 519 kts 137°
2026-05-05 02:19 -30.52524 -65.28803 38887 ft 518 kts 137°
2026-05-05 02:19 -30.57202 -65.22448 38890 ft 518 kts 137°
2026-05-05 02:20 -30.61877 -65.16081 38894 ft 518 kts 137°
2026-05-05 02:20 -30.66553 -65.09703 38889 ft 518 kts 137°
2026-05-05 02:21 -30.71219 -65.03327 38888 ft 518 kts 137°
2026-05-05 02:21 -30.75871 -64.96947 38886 ft 518 kts 137°
2026-05-05 02:22 -30.80521 -64.90566 38893 ft 517 kts 137°
2026-05-05 02:22 -30.85169 -64.84190 38896 ft 517 kts 137°
2026-05-05 02:23 -30.89815 -64.77807 38898 ft 517 kts 137°
2026-05-05 02:23 -30.94456 -64.71419 38894 ft 516 kts 137°
2026-05-05 02:24 -30.99096 -64.65021 38900 ft 517 kts 137°
2026-05-05 02:24 -31.03732 -64.58620 38906 ft 516 kts 137°
2026-05-05 02:25 -31.08365 -64.52212 38908 ft 516 kts 137°
2026-05-05 02:25 -31.12998 -64.45797 38911 ft 518 kts 136°
2026-05-05 02:26 -31.17626 -64.39372 38904 ft 517 kts 136°
2026-05-05 02:26 -31.22254 -64.32934 38909 ft 517 kts 136°
2026-05-05 02:27 -31.26873 -64.26492 38904 ft 517 kts 136°
2026-05-05 02:27 -31.31471 -64.20025 38911 ft 517 kts 136°
2026-05-05 02:28 -31.36011 -64.13478 38915 ft 518 kts 135°
2026-05-05 02:28 -31.40527 -64.06898 38907 ft 519 kts 135°
2026-05-05 02:29 -31.45046 -64.00315 38903 ft 518 kts 135°
2026-05-05 02:29 -31.49566 -63.93735 38906 ft 518 kts 135°
2026-05-05 02:30 -31.54079 -63.87152 38906 ft 518 kts 135°
2026-05-05 02:30 -31.58592 -63.80557 38907 ft 518 kts 135°
2026-05-05 02:31 -31.63101 -63.73958 38906 ft 518 kts 135°
2026-05-05 02:31 -31.67603 -63.67353 38906 ft 518 kts 135°
2026-05-05 02:32 -31.72130 -63.60703 38907 ft 518 kts 135°
2026-05-05 02:32 -31.76625 -63.54093 38907 ft 517 kts 135°
2026-05-05 02:33 -31.81114 -63.47477 38897 ft 517 kts 135°
2026-05-05 02:33 -31.85579 -63.40859 38899 ft 516 kts 135°
2026-05-05 02:34 -31.90025 -63.34239 38896 ft 516 kts 134°
2026-05-05 02:34 -31.94470 -63.27611 38895 ft 515 kts 135°
2026-05-05 02:35 -31.98907 -63.20995 38894 ft 515 kts 135°
2026-05-05 02:35 -32.03345 -63.14366 38899 ft 514 kts 134°
2026-05-05 02:36 -32.07768 -63.07744 38898 ft 514 kts 134°
2026-05-05 02:36 -32.11439 -63.02240 38896 ft 514 kts 134°
2026-05-05 02:37 -32.15855 -62.95610 38896 ft 513 kts 134°
2026-05-05 02:37 -32.20259 -62.88983 38898 ft 513 kts 134°
2026-05-05 02:38 -32.24655 -62.82360 38899 ft 512 kts 134°
2026-05-05 02:38 -32.29047 -62.75733 38896 ft 513 kts 134°
2026-05-05 02:39 -32.33440 -62.69093 38896 ft 513 kts 134°
2026-05-05 02:39 -32.37827 -62.62448 38897 ft 513 kts 134°
2026-05-05 02:40 -32.42204 -62.55780 38896 ft 512 kts 134°
2026-05-05 02:40 -32.46563 -62.49115 38896 ft 512 kts 134°
2026-05-05 02:41 -32.50928 -62.42460 38896 ft 512 kts 134°
2026-05-05 02:41 -32.55297 -62.35797 38896 ft 512 kts 134°
2026-05-05 02:42 -32.59663 -62.29128 38899 ft 512 kts 134°
2026-05-05 02:42 -32.64021 -62.22456 38896 ft 512 kts 134°
2026-05-05 02:43 -32.68409 -62.15729 38899 ft 512 kts 134°
2026-05-05 02:43 -32.72732 -62.09087 38898 ft 512 kts 134°
2026-05-05 02:44 -32.76981 -62.02205 38904 ft 514 kts 131°
2026-05-05 02:44 -32.81029 -61.95194 38909 ft 515 kts 130°
2026-05-05 02:45 -32.85061 -61.88165 38909 ft 514 kts 130°
2026-05-05 02:45 -32.89107 -61.81156 38907 ft 514 kts 130°
2026-05-05 02:46 -32.93158 -61.74148 38905 ft 514 kts 130°
2026-05-05 02:46 -32.97205 -61.67132 38904 ft 514 kts 130°
2026-05-05 02:47 -33.01249 -61.60108 38909 ft 514 kts 130°
2026-05-05 02:47 -33.05293 -61.53069 38906 ft 514 kts 130°
2026-05-05 02:48 -33.09323 -61.46042 38909 ft 514 kts 130°
2026-05-05 02:48 -33.13360 -61.38989 38905 ft 514 kts 130°
2026-05-05 02:49 -33.17387 -61.31940 38903 ft 514 kts 130°
2026-05-05 02:49 -33.21404 -61.24890 38906 ft 514 kts 130°
2026-05-05 02:50 -33.25409 -61.17804 38904 ft 514 kts 130°
2026-05-05 02:50 -33.29409 -61.10731 38906 ft 513 kts 130°
2026-05-05 02:51 -33.33410 -61.03660 38903 ft 514 kts 130°
2026-05-05 02:51 -33.37410 -60.96576 38908 ft 514 kts 130°
2026-05-05 02:52 -33.41398 -60.89481 38906 ft 514 kts 130°
2026-05-05 02:52 -33.45386 -60.82376 38904 ft 514 kts 130°
2026-05-05 02:53 -33.49364 -60.75277 38909 ft 513 kts 130°
2026-05-05 02:53 -33.53348 -60.68158 38741 ft 514 kts 130°
2026-05-05 02:53 -33.55333 -60.64603 38521 ft 514 kts 130°
2026-05-05 02:54 -33.57325 -60.61036 38171 ft 515 kts 130°
2026-05-05 02:54 -33.59307 -60.57480 37713 ft 514 kts 130°
2026-05-05 02:54 -33.61287 -60.53921 37154 ft 513 kts 130°
2026-05-05 02:54 -33.63271 -60.50356 36607 ft 512 kts 130°
2026-05-05 02:55 -33.65245 -60.46803 36066 ft 512 kts 130°
2026-05-05 02:55 -33.67225 -60.43239 35522 ft 514 kts 129°
2026-05-05 02:55 -33.69217 -60.39652 34971 ft 518 kts 129°
2026-05-05 02:55 -33.71220 -60.36042 34421 ft 521 kts 129°
2026-05-05 02:56 -33.73234 -60.32407 33872 ft 524 kts 129°
2026-05-05 02:56 -33.75253 -60.28759 33275 ft 525 kts 129°
2026-05-05 02:56 -33.77272 -60.25100 32676 ft 526 kts 128°
2026-05-05 02:56 -33.79298 -60.21427 32080 ft 527 kts 128°
2026-05-05 02:57 -33.81324 -60.17753 31482 ft 528 kts 128°
2026-05-05 02:57 -33.83346 -60.14065 30874 ft 528 kts 128°
2026-05-05 02:57 -33.85376 -60.10375 30217 ft 529 kts 128°
2026-05-05 02:57 -33.87402 -60.06710 29463 ft 524 kts 128°
2026-05-05 02:58 -33.89415 -60.03080 28731 ft 519 kts 128°
2026-05-05 02:58 -33.91411 -59.99491 27999 ft 514 kts 128°
2026-05-05 02:58 -33.93393 -59.95930 27281 ft 510 kts 128°
2026-05-05 02:58 -33.95356 -59.92398 26568 ft 505 kts 128°
2026-05-05 02:59 -33.97302 -59.88896 25860 ft 501 kts 128°
2026-05-05 02:59 -33.99231 -59.85419 25160 ft 497 kts 128°
2026-05-05 02:59 -34.01138 -59.81981 24475 ft 493 kts 128°
2026-05-05 02:59 -34.03036 -59.78553 23784 ft 489 kts 127°
2026-05-05 03:00 -34.04943 -59.75106 23096 ft 484 kts 127°
2026-05-05 03:00 -34.06776 -59.71789 22430 ft 479 kts 127°
2026-05-05 03:00 -34.08608 -59.68465 21755 ft 474 kts 127°
2026-05-05 03:00 -34.10424 -59.65173 21098 ft 469 kts 127°
2026-05-05 03:01 -34.12219 -59.61916 20436 ft 464 kts 127°
2026-05-05 03:01 -34.14016 -59.58654 19790 ft 459 kts 127°
2026-05-05 03:01 -34.15772 -59.55462 19146 ft 453 kts 128°
2026-05-05 03:01 -34.17501 -59.52315 18514 ft 448 kts 128°
2026-05-05 03:02 -34.19217 -59.49189 17885 ft 444 kts 128°
2026-05-05 03:02 -34.20941 -59.46127 17263 ft 437 kts 132°
2026-05-05 03:02 -34.22949 -59.43415 16634 ft 428 kts 140°
2026-05-05 03:02 -34.25136 -59.41029 16008 ft 422 kts 144°
2026-05-05 03:03 -34.27391 -59.38777 15387 ft 418 kts 145°
2026-05-05 03:03 -34.29639 -59.36584 14770 ft 414 kts 145°
2026-05-05 03:03 -34.31865 -59.34404 14167 ft 410 kts 145°
2026-05-05 03:03 -34.34066 -59.32223 13563 ft 407 kts 144°
2026-05-05 03:04 -34.36245 -59.30042 12967 ft 404 kts 144°
2026-05-05 03:04 -34.38391 -59.27874 12388 ft 401 kts 143°
2026-05-05 03:04 -34.40528 -59.25708 11819 ft 399 kts 143°
2026-05-05 03:04 -34.42639 -59.23562 11312 ft 395 kts 143°
2026-05-05 03:05 -34.44737 -59.21428 11063 ft 390 kts 142°
2026-05-05 03:05 -34.46752 -59.19373 10930 ft 367 kts 142°
2026-05-05 03:05 -34.48647 -59.17438 10815 ft 347 kts 142°
2026-05-05 03:05 -34.50447 -59.15600 10667 ft 330 kts 142°
2026-05-05 03:06 -34.52159 -59.13854 10552 ft 315 kts 142°
2026-05-05 03:06 -34.53827 -59.12154 10307 ft 312 kts 142°
2026-05-05 03:06 -34.55486 -59.10465 9807 ft 310 kts 142°
2026-05-05 03:06 -34.57146 -59.08775 9248 ft 312 kts 141°
2026-05-05 03:07 -34.58791 -59.07097 8709 ft 306 kts 140°
2026-05-05 03:07 -34.60395 -59.05448 8185 ft 301 kts 140°
2026-05-05 03:07 -34.61998 -59.03810 7686 ft 301 kts 141°
2026-05-05 03:07 -34.63595 -59.02176 7229 ft 300 kts 141°
2026-05-05 03:08 -34.65187 -59.00548 6755 ft 299 kts 140°
2026-05-05 03:08 -34.66780 -58.98916 6294 ft 298 kts 141°
2026-05-05 03:08 -34.68350 -58.97308 5918 ft 293 kts 141°
2026-05-05 03:08 -34.69902 -58.95717 5487 ft 291 kts 141°
2026-05-05 03:09 -34.71441 -58.94139 5027 ft 285 kts 141°
2026-05-05 03:09 -34.72918 -58.92619 4582 ft 271 kts 140°
2026-05-05 03:09 -34.74320 -58.91178 4128 ft 258 kts 140°
2026-05-05 03:09 -34.75564 -58.89667 3643 ft 250 kts 124°
2026-05-05 03:10 -34.76232 -58.87772 3235 ft 242 kts 103°
2026-05-05 03:10 -34.76605 -58.85768 2916 ft 243 kts 101°
2026-05-05 03:10 -34.76927 -58.83788 2614 ft 237 kts 101°
2026-05-05 03:10 -34.77237 -58.81832 2334 ft 229 kts 102°
2026-05-05 03:11 -34.77520 -58.80054 2235 ft 200 kts 102°
2026-05-05 03:11 -34.77772 -58.78496 2190 ft 177 kts 103°
2026-05-05 03:11 -34.78000 -58.77119 2170 ft 161 kts 104°
2026-05-05 03:11 -34.78230 -58.75792 2234 ft 160 kts 104°
2026-05-05 03:12 -34.78457 -58.74475 2219 ft 158 kts 104°
2026-05-05 03:12 -34.78687 -58.73171 2214 ft 157 kts 104°
2026-05-05 03:12 -34.78916 -58.71877 2210 ft 157 kts 104°
2026-05-05 03:12 -34.79147 -58.70585 2221 ft 156 kts 104°
2026-05-05 03:13 -34.79380 -58.69289 2230 ft 157 kts 105°
2026-05-05 03:13 -34.79602 -58.68051 2117 ft 151 kts 105°
2026-05-05 03:13 -34.79823 -58.66804 1981 ft 151 kts 104°
2026-05-05 03:13 -34.79975 -58.65960 1850 ft 150 kts 104°
2026-05-05 03:14 -34.80197 -58.64740 1626 ft 147 kts 103°
2026-05-05 03:14 -34.80413 -58.63548 1418 ft 143 kts 103°
2026-05-05 03:14 -34.80628 -58.62364 1257 ft 144 kts 103°
2026-05-05 03:14 -34.80846 -58.61162 1063 ft 144 kts 101°
2026-05-05 03:15 -34.81062 -58.59966 861 ft 146 kts 101°
2026-05-05 03:15 -34.81279 -58.58765 674 ft 145 kts 101°
2026-05-05 03:15 -34.81494 -58.57576 476 ft 144 kts 101°
2026-05-05 03:15 -34.81718 -58.56391 285 ft 145 kts 102°
2026-05-05 03:16 -34.81928 -58.55211 112 ft 141 kts 102°
2026-05-05 03:16 -34.82113 -58.54180 90 ft 105 kts 102°
2026-05-05 03:16 -34.82237 -58.53490 89 ft 64 kts 102°
2026-05-05 03:16 -34.82308 -58.53098 89 ft 29 kts 102°
2026-05-05 03:17 -34.82335 -58.52916 90 ft 14 kts 86°
2026-05-05 03:17 -34.82321 -58.52891 90 ft 1 kts 36°
2026-05-05 03:17 -34.82302 -58.52878 90 ft 1 kts 15°
2026-05-05 03:17 -34.82300 -58.52879 90 ft 0 kts
2026-05-05 03:18 -34.82294 -58.52883 90 ft 4 kts 344°
2026-05-05 03:18 -34.82241 -58.52904 89 ft 10 kts 341°
2026-05-05 03:18 -34.82174 -58.52929 92 ft 10 kts 343°
2026-05-05 03:18 -34.82101 -58.52956 88 ft 11 kts 343°
2026-05-05 03:19 -34.82012 -58.53090 85 ft 12 kts 283°
2026-05-05 03:19 -34.81993 -58.53184 83 ft 12 kts 283°
2026-05-05 03:19 -34.81974 -58.53282 83 ft 12 kts 283°
2026-05-05 03:20 -34.81955 -58.53380 83 ft 12 kts 283°
2026-05-05 03:20 -34.81936 -58.53472 83 ft 11 kts 284°
2026-05-05 03:20 -34.81919 -58.53560 83 ft 11 kts 283°
2026-05-05 03:20 -34.81887 -58.53634 83 ft 9 kts 315°
2026-05-05 03:21 -34.81820 -58.53678 83 ft 13 kts 334°
2026-05-05 03:21 -34.81741 -58.53724 83 ft 13 kts 334°
2026-05-05 03:21 -34.81672 -58.53764 83 ft 8 kts 337°
2026-05-05 03:21 -34.81650 -58.53781 83 ft 1 kts 308°
2026-05-05 03:22 -34.81649 -58.53790 83 ft 3 kts 291°
2026-05-05 03:22 -34.81644 -58.53812 83 ft 2 kts 283°
2026-05-05 03:22 -34.81639 -58.53817 83 ft 1 kts 311°
2026-05-05 03:22 -34.81632 -58.53821 83 ft 1 kts 335°
2026-05-05 03:23 -34.81614 -58.53825 83 ft 4 kts 348°
2026-05-05 03:23 -34.81589 -58.53832 82 ft 4 kts 348°
2026-05-05 03:23 -34.81564 -58.53838 82 ft 4 kts 349°
2026-05-05 03:23 -34.81540 -58.53844 82 ft 3 kts 348°
2026-05-05 03:24 -34.81524 -58.53847 82 ft 2 kts 349°
2026-05-05 03:24 -34.81512 -58.53850 82 ft 2 kts 349°
2026-05-05 03:24 -34.81505 -58.53851 82 ft 0 kts 349°
2026-05-05 03:24 -34.81505 -58.53852 82 ft 0 kts 349°